Temp
-8 -8 -8 -8 -8 -8 -8 -8 -8 -8 -8 -8 -7 -7 -7 -7 -7 -7 -7 -6 -6 -6 -6 -6 -6 -6 -6 -6 -6 -6 -6 -6 -6 -6 -6 -6 -6 -6 -6 -6 -6 -6 -6 -7 -6 -6 -6 -6 -6 -7 -7 -7 -7 -7 -7 -7 -7 -7 -7 -8 -8 -8 -8 -8 -8 -8 -8 -8 -8
-8 -8 -8 -8 -8 -8 -8 -8 -8 -7 -7 -7 -7 -7 -7 -7 -7 -7 -6 -6 -6 -6 -6 -6 -6 -6 -6 -6 -6 -6 -6 -6 -6 -6 -6 -6 -6 -6 -6 -6 -6 -6 -6 -7 -6 -6 -6 -6 -6 -7 -7 -7 -7 -7 -7 -7 -7 -7 -7 -8 -8 -8 -8 -8 -8 -8 -8 -8 -8
-8 -8 -8 -8 -8 -8 -8 -7 -7 -7 -7 -7 -7 -7 -7 -7 -7 -7 -7 -6 -6 -6 -6 -6 -6 -6 -6 -6 -6 -6 -6 -6 -6 -6 -6 -6 -6 -6 -6 -6 -6 -6 -6 -6 -6 -6 -6 -6 -6 -7 -7 -7 -7 -7 -7 -7 -7 -7 -7 -8 -8 -8 -8 -8 -8 -8 -8 -8 -8
-8 -8 -8 -8 -8 -8 -7 -7 -7 -7 -7 -7 -7 -7 -7 -7 -7 -7 -7 -7 -6 -6 -6 -6 -6 -6 -6 -6 -6 -6 -6 -6 -6 -6 -6 -6 -6 -6 -6 -6 -6 -7 -6 -6 -6 -6 -6 -6 -6 -6 -7 -7 -7 -7 -7 -7 -7 -7 -7 -7 -8 -8 -8 -8 -8 -8 -8 -8 -8
-8 -8 -8 -8 -8 -8 -8 -7 -7 -7 -7 -7 -7 -7 -7 -7 -7 -7 -7 -6 -6 -6 -6 -6 -6 -6 -6 -6 -7 -7 -7 -7 -6 -6 -6 -6 -6 -6 -6 -6 -7 -7 -7 -6 -6 -6 -6 -6 -6 -6 -7 -7 -7 -7 -7 -7 -7 -7 -7 -7 -7 -7 -7 -8 -8 -8 -8 -8 -8
-8 -8 -8 -8 -8 -8 -8 -7 -7 -7 -7 -7 -7 -7 -7 -7 -7 -7 -7 -7 -7 -6 -6 -6 -6 -6 -7 -7 -7 -7 -7 -7 -6 -6 -6 -6 -6 -6 -6 -6 -7 -7 -7 -6 -6 -6 -6 -6 -6 -6 -6 -7 -7 -7 -7 -7 -7 -7 -7 -7 -7 -7 -7 -8 -8 -8 -8 -8 -8
-8 -8 -8 -8 -8 -8 -8 -8 -7 -7 -7 -7 -7 -7 -7 -7 -7 -7 -7 -7 -7 -7 -6 -6 -6 -7 -7 -7 -7 -7 -7 -7 -6 -6 -6 -6 -6 -6 -6 -7 -7 -7 -7 -6 -6 -6 -6 -6 -6 -6 -6 -6 -6 -7 -7 -7 -7 -7 -7 -7 -7 -7 -7 -7 -7 -7 -7 -7 -7
-8 -8 -8 -8 -8 -8 -8 -8 -7 -7 -7 -7 -7 -7 -7 -7 -7 -7 -7 -7 -7 -7 -7 -7 -7 -7 -7 -7 -7 -7 -7 -7 -7 -6 -6 -6 -6 -6 -7 -7 -7 -7 -7 -6 -6 -6 -6 -6 -6 -6 -6 -6 -6 -6 -7 -7 -7 -7 -7 -7 -7 -7 -7 -7 -7 -7 -7 -7 -7
-8 -8 -8 -8 -8 -8 -8 -7 -7 -7 -7 -7 -7 -7 -7 -7 -7 -7 -7 -7 -7 -7 -7 -7 -7 -7 -7 -7 -7 -7 -7 -7 -7 -7 -7 -7 -7 -7 -7 -7 -7 -7 -7 -6 -6 -6 -6 -6 -7 -7 -7 -6 -6 -6 -7 -7 -7 -7 -7 -7 -7 -7 -7 -7 -7 -7 -7 -6 -6
-8 -8 -8 -8 -7 -7 -7 -7 -7 -7 -7 -7 -7 -7 -7 -7 -7 -7 -7 -7 -7 -7 -7 -7 -7 -7 -8 -8 -7 -7 -7 -7 -7 -7 -7 -7 -7 -7 -7 -7 -7 -7 -7 -7 -6 -6 -6 -7 -7 -7 -7 -7 -7 -7 -7 -7 -7 -7 -6 -6 -6 -6 -6 -6 -6 -6 -6 -6 -6
-8 -8 -8 -7 -7 -7 -7 -7 -7 -7 -7 -7 -7 -7 -7 -7 -7 -7 -7 -7 -7 -7 -7 -7 -7 -8 -8 -8 -7 -7 -7 -7 -7 -7 -7 -7 -7 -7 -7 -7 -7 -7 -7 -7 -7 -7 -7 -7 -7 -7 -7 -7 -7 -7 -7 -7 -7 -7 -7 -7 -7 -7 -6 -6 -6 -6 -6 -6 -6
-8 -8 -8 -8 -8 -8 -7 -7 -7 -7 -7 -7 -7 -7 -7 -7 -7 -7 -7 -7 -7 -7 -7 -7 -8 -8 -8 -8 -7 -7 -7 -7 -7 -7 -7 -7 -7 -7 -7 -7 -7 -7 -7 -7 -7 -7 -7 -7 -7 -7 -7 -7 -7 -7 -7 -7 -7 -7 -7 -7 -7 -7 -7 -7 -7 -7 -7 -7 -6
-7 -7 -7 -7 -7 -7 -7 -7 -7 -7 -7 -7 -7 -7 -7 -7 -7 -7 -7 -7 -7 -7 -7 -8 -8 -8 -8 -8 -7 -7 -7 -7 -7 -7 -7 -7 -7 -7 -7 -7 -7 -7 -7 -7 -7 -7 -7 -7 -7 -7 -7 -7 -7 -7 -8 -8 -8 -7 -7 -7 -7 -7 -7 -7 -7 -7 -7 -7 -7
-7 -7 -7 -7 -7 -7 -7 -7 -7 -7 -7 -7 -7 -7 -7 -7 -7 -7 -7 -7 -7 -7 -8 -8 -8 -8 -8 -8 -8 -7 -7 -7 -7 -7 -7 -7 -7 -7 -7 -7 -7 -7 -7 -7 -7 -7 -7 -7 -7 -7 -7 -7 -7 -7 -7 -8 -8 -8 -7 -7 -7 -7 -7 -7 -7 -7 -7 -7 -7
-7 -7 -7 -7 -7 -7 -7 -7 -7 -7 -7 -7 -7 -7 -8 -7 -7 -7 -7 -7 -8 -8 -8 -8 -8 -8 -8 -8 -8 -7 -7 -7 -7 -7 -7 -8 -8 -8 -8 -8 -8 -7 -7 -7 -7 -7 -7 -7 -7 -7 -7 -7 -7 -7 -7 -7 -7 -7 -7 -7 -7 -7 -7 -7 -7 -7 -7 -7 -7
-7 -7 -7 -7 -7 -7 -7 -7 -7 -7 -7 -7 -7 -8 -8 -8 -8 -8 -8 -8 -8 -8 -8 -8 -8 -8 -8 -8 -8 -7 -7 -7 -7 -7 -8 -8 -8 -8 -8 -8 -8 -8 -8 -7 -7 -7 -7 -7 -7 -8 -8 -8 -7 -7 -7 -7 -7 -7 -7 -7 -7 -7 -7 -7 -8 -8 -8 -8 -8
-7 -7 -7 -7 -7 -7 -7 -7 -7 -7 -7 -7 -8 -8 -8 -8 -8 -8 -8 -8 -8 -8 -8 -8 -8 -8 -8 -8 -8 -7 -7 -7 -7 -8 -8 -8 -8 -8 -8 -8 -8 -8 -8 -8 -7 -7 -7 -7 -7 -8 -8 -8 -7 -7 -7 -7 -7 -7 -7 -7 -7 -8 -8 -8 -8 -8 -8 -8 -8
-7 -7 -7 -7 -7 -7 -8 -8 -8 -8 -8 -8 -8 -8 -8 -8 -8 -8 -8 -8 -8 -8 -8 -8 -8 -8 -8 -8 -8 -7 -7 -7 -7 -8 -8 -8 -8 -8 -8 -8 -8 -8 -8 -8 -8 -7 -7 -7 -7 -8 -8 -8 -7 -7 -7 -7 -7 -7 -7 -7 -7 -7 -8 -8 -8 -8 -8 -8 -8
-7 -7 -7 -7 -7 -8 -8 -8 -8 -8 -8 -8 -8 -8 -8 -8 -8 -8 -8 -8 -8 -8 -8 -8 -8 -8 -8 -8 -8 -8 -7 -7 -8 -8 -8 -8 -8 -8 -8 -8 -8 -8 -8 -8 -7 -7 -7 -7 -7 -8 -8 -8 -7 -7 -7 -7 -7 -7 -7 -7 -7 -7 -8 -8 -8 -8 -8 -8 -8
-7 -7 -7 -7 -8 -8 -8 -8 -8 -8 -8 -8 -8 -8 -8 -8 -8 -8 -8 -8 -8 -8 -8 -8 -8 -8 -8 -8 -8 -8 -7 -7 -7 -8 -8 -8 -8 -8 -8 -8 -8 -8 -8 -7 -7 -7 -7 -7 -7 -7 -8 -8 -7 -7 -7 -7 -7 -7 -7 -7 -7 -7 -7 -7 -8 -8 -8 -8 -8
-7 -7 -8 -8 -8 -8 -8 -8 -8 -8 -8 -8 -8 -8 -8 -8 -8 -8 -8 -8 -8 -8 -8 -8 -8 -8 -8 -8 -7 -7 -7 -7 -7 -7 -8 -8 -8 -8 -8 -8 -8 -7 -7 -7 -7 -7 -7 -7 -7 -7 -7 -7 -7 -7 -7 -7 -7 -7 -7 -7 -7 -7 -7 -7 -7 -7 -8 -8 -8
-7 -8 -8 -8 -8 -8 -8 -8 -8 -8 -8 -8 -8 -8 -8 -8 -8 -8 -8 -8 -8 -8 -8 -8 -8 -8 -8 -8 -7 -7 -7 -7 -7 -7 -7 -8 -8 -8 -8 -8 -8 -7 -7 -7 -7 -7 -7 -7 -7 -7 -7 -7 -7 -7 -7 -7 -7 -7 -7 -6 -7 -7 -7 -7 -7 -7 -7 -8 -8
-8 -8 -8 -8 -8 -8 -8 -8 -8 -8 -8 -8 -8 -8 -8 -8 -8 -8 -8 -8 -8 -8 -8 -8 -8 -8 -8 -8 -7 -7 -7 -7 -7 -7 -7 -7 -7 -7 -7 -7 -7 -7 -7 -7 -7 -7 -6 -6 -7 -7 -7 -7 -7 -7 -7 -7 -7 -7 -7 -7 -7 -7 -7 -7 -7 -7 -7 -7 -8
-8 -8 -8 -8 -8 -8 -8 -8 -8 -8 -8 -8 -8 -8 -8 -8 -8 -8 -8 -8 -8 -8 -8 -8 -8 -8 -8 -7 -7 -7 -7 -7 -7 -7 -7 -7 -7 -7 -7 -7 -7 -7 -7 -7 -7 -6 -6 -6 -7 -7 -7 -7 -7 -7 -7 -7 -7 -7 -7 -7 -7 -7 -7 -7 -7 -7 -7 -7 -7
-8 -8 -8 -8 -8 -8 -7 -7 -7 -8 -8 -8 -8 -8 -8 -8 -8 -8 -8 -8 -8 -8 -8 -8 -8 -8 -7 -7 -7 -7 -7 -7 -7 -7 -7 -7 -7 -7 -7 -7 -7 -7 -7 -7 -7 -6 -5 -5 -6 -7 -7 -7 -7 -7 -7 -7 -7 -7 -7 -7 -7 -7 -7 -7 -7 -7 -7 -7 -8
-7 -7 -7 -7 -7 -7 -7 -7 -7 -7 -8 -8 -8 -8 -8 -8 -8 -8 -8 -8 -8 -8 -8 -8 -8 -8 -7 -7 -7 -7 -7 -7 -7 -7 -7 -7 -7 -7 -7 -7 -7 -7 -7 -7 -6 -5 -5 -5 -5 -6 -7 -7 -7 -7 -7 -7 -7 -7 -7 -7 -7 -7 -7 -7 -7 -7 -7 -7 -7
-7 -7 -7 -7 -7 -7 -7 -7 -7 -7 -7 -8 -8 -8 -8 -8 -8 -8 -8 -8 -8 -8 -8 -8 -8 -8 -7 -7 -7 -7 -7 -7 -7 -7 -7 -7 -7 -7 -7 -7 -7 -6 -6 -6 -6 -5 -5 -4 -5 -6 -7 -7 -7 -7 -7 -7 -7 -7 -7 -7 -7 -7 -7 -7 -7 -7 -7 -7 -7
-7 -7 -7 -7 -7 -7 -7 -7 -7 -7 -7 -8 -8 -8 -8 -8 -8 -8 -8 -8 -8 -8 -8 -8 -8 -7 -7 -7 -7 -7 -7 -7 -7 -7 -7 -7 -7 -7 -7 -7 -7 -7 -6 -6 -6 -5 -5 -4 -5 -5 -6 -7 -7 -7 -7 -7 -7 -6 -6 -6 -7 -7 -7 -7 -7 -7 -7 -7 -8
-7 -7 -7 -7 -7 -7 -7 -7 -7 -7 -7 -7 -8 -8 -8 -8 -8 -8 -8 -8 -8 -8 -8 -7 -7 -7 -7 -7 -7 -7 -7 -7 -7 -7 -7 -7 -7 -7 -7 -7 -7 -7 -6 -6 -6 -5 -5 -4 -5 -5 -6 -7 -7 -7 -7 -7 -7 -6 -6 -6 -6 -7 -7 -7 -7 -7 -7 -8 -8
-7 -7 -7 -7 -7 -7 -7 -7 -7 -7 -7 -7 -8 -8 -8 -8 -8 -8 -8 -8 -8 -8 -8 -7 -7 -7 -7 -7 -7 -7 -7 -7 -7 -7 -7 -7 -7 -7 -7 -7 -7 -7 -7 -6 -6 -5 -5 -5 -5 -5 -5 -6 -7 -7 -7 -7 -7 -6 -6 -6 -6 -7 -7 -7 -7 -8 -8 -8 -8
-7 -7 -7 -7 -7 -7 -7 -7 -7 -7 -7 -7 -7 -8 -8 -8 -8 -8 -8 -8 -8 -8 -8 -7 -7 -7 -7 -7 -7 -7 -7 -7 -7 -7 -7 -7 -7 -7 -7 -7 -7 -7 -7 -6 -6 -5 -5 -5 -5 -5 -5 -6 -7 -7 -7 -7 -7 -7 -6 -6 -6 -7 -7 -7 -8 -8 -8 -8 -8
-7 -7 -7 -7 -7 -7 -7 -7 -7 -7 -7 -7 -7 -7 -7 -7 -7 -7 -7 -8 -8 -8 -8 -7 -7 -8 -7 -7 -7 -7 -7 -7 -7 -7 -7 -7 -7 -7 -7 -7 -7 -7 -7 -6 -6 -6 -5 -5 -5 -5 -5 -6 -7 -7 -7 -7 -7 -7 -6 -6 -6 -6 -7 -7 -8 -8 -8 -9 -9
-7 -7 -7 -7 -7 -7 -7 -7 -7 -7 -7 -7 -7 -7 -7 -7 -7 -7 -7 -8 -8 -7 -7 -7 -8 -8 -7 -7 -7 -7 -7 -7 -8 -8 -8 -8 -8 -7 -7 -7 -7 -7 -7 -6 -6 -6 -5 -5 -5 -5 -5 -6 -7 -7 -7 -7 -7 -7 -6 -6 -6 -6 -7 -7 -7 -8 -8 -9 -9
-7 -7 -7 -7 -7 -7 -7 -7 -7 -7 -7 -7 -7 -7 -7 -7 -7 -7 -7 -7 -7 -7 -7 -7 -7 -8 -8 -7 -7 -7 -8 -8 -8 -8 -8 -8 -8 -7 -7 -7 -7 -7 -7 -6 -6 -6 -6 -5 -5 -5 -5 -6 -6 -7 -7 -7 -7 -6 -6 -6 -6 -6 -6 -7 -7 -8 -8 -9 -9
-7 -7 -7 -7 -7 -7 -7 -7 -7 -7 -7 -7 -7 -7 -7 -7 -7 -7 -7 -7 -7 -7 -7 -7 -7 -7 -7 -7 -8 -8 -8 -8 -8 -8 -8 -8 -7 -7 -7 -7 -7 -7 -7 -6 -6 -6 -6 -5 -5 -5 -5 -6 -6 -7 -7 -7 -7 -6 -5 -5 -5 -6 -6 -7 -7 -8 -8 -8 -9
-7 -7 -7 -7 -7 -7 -7 -7 -7 -7 -7 -7 -6 -7 -7 -7 -7 -7 -7 -7 -7 -7 -7 -7 -7 -7 -7 -7 -7 -8 -8 -7 -7 -7 -7 -7 -7 -7 -7 -7 -7 -7 -7 -6 -6 -6 -6 -5 -5 -5 -6 -6 -6 -7 -7 -7 -6 -5 -5 -5 -5 -6 -6 -6 -7 -7 -8 -8 -8
-7 -7 -7 -7 -7 -7 -7 -7 -7 -7 -7 -6 -6 -6 -7 -7 -7 -7 -7 -7 -7 -7 -7 -7 -7 -7 -7 -7 -7 -7 -7 -7 -7 -7 -7 -7 -7 -7 -7 -7 -7 -7 -7 -6 -6 -6 -6 -5 -5 -5 -5 -6 -6 -7 -7 -6 -5 -5 -5 -5 -5 -6 -6 -6 -7 -7 -7 -8 -8
-7 -7 -7 -7 -7 -7 -7 -7 -7 -7 -6 -6 -6 -6 -7 -7 -7 -7 -7 -7 -7 -7 -7 -7 -7 -7 -7 -7 -7 -7 -7 -7 -7 -7 -7 -7 -7 -7 -7 -7 -7 -7 -6 -6 -6 -6 -6 -5 -5 -5 -5 -6 -6 -6 -6 -6 -5 -5 -5 -5 -5 -6 -6 -6 -6 -7 -7 -7 -7
-7 -7 -7 -7 -7 -7 -7 -7 -7 -7 -7 -7 -7 -7 -7 -7 -7 -7 -7 -7 -7 -7 -7 -7 -7 -7 -7 -7 -7 -7 -7 -7 -7 -7 -7 -7 -7 -7 -6 -6 -7 -7 -6 -6 -6 -6 -5 -5 -5 -5 -5 -6 -6 -6 -5 -5 -5 -5 -5 -5 -5 -6 -6 -6 -6 -6 -7 -7 -7
-6 -7 -7 -7 -7 -7 -7 -7 -7 -7 -7 -7 -7 -7 -7 -7 -7 -7 -7 -7 -7 -7 -7 -7 -7 -7 -7 -7 -7 -7 -7 -7 -7 -7 -7 -6 -6 -6 -6 -6 -6 -6 -6 -6 -6 -6 -5 -5 -5 -4 -5 -5 -6 -6 -5 -5 -5 -5 -5 -5 -5 -5 -6 -6 -6 -6 -7 -7 -7
-7 -7 -7 -7 -7 -7 -7 -7 -7 -7 -7 -7 -7 -7 -7 -7 -7 -7 -7 -7 -7 -7 -7 -7 -7 -7 -7 -7 -7 -7 -7 -7 -7 -6 -6 -6 -6 -6 -6 -6 -6 -6 -6 -6 -6 -5 -5 -5 -5 -4 -4 -5 -5 -5 -5 -5 -5 -5 -5 -5 -5 -5 -6 -6 -6 -6 -6 -7 -7
Height
892 891 890 889 888 887 886 885 883 883 881 880 879 878 876 875 873 872 870 869 867 865 863 861 859 858 856 854 852 850 848 846 844 842 840 838 836 833 831 828 825 822 819 816 812 809 807 805 803 801 800 799 798 797 796 795 794 794 793 792 791 790 788 788 787 785 784 783 782
891 890 889 888 887 886 885 884 883 882 881 880 878 877 876 874 873 871 870 868 867 865 863 861 859 857 855 853 852 850 848 845 843 841 839 837 835 833 830 828 825 822 819 815 813 810 808 805 803 801 800 799 798 797 796 795 794 793 792 791 790 789 788 786 785 784 783 782 781
891 890 888 888 887 886 885 884 883 882 880 879 878 877 875 874 873 871 869 868 866 864 863 860 858 857 855 853 851 849 847 845 843 841 839 837 834 832 830 828 824 822 818 816 813 810 808 805 803 802 800 799 798 796 795 794 793 792 791 790 789 788 787 785 784 783 782 781 779
890 889 888 887 886 885 884 883 882 881 880 879 877 876 875 873 872 870 868 867 865 863 862 860 858 856 854 853 851 849 847 845 843 841 838 836 834 832 830 827 824 821 818 816 813 810 808 806 804 802 800 799 797 796 795 794 793 792 790 789 788 787 786 784 783 782 781 780 778
889 888 888 887 886 885 884 883 882 880 879 878 877 875 874 873 871 870 868 866 864 863 861 859 858 856 854 852 850 848 846 844 842 840 838 836 834 832 829 827 824 822 818 816 813 811 808 806 804 802 800 799 798 796 795 794 792 791 790 788 787 786 785 784 783 781 780 779 778
889 888 887 886 885 884 883 882 881 880 878 877 876 875 873 872 871 869 867 866 864 862 860 858 857 855 853 852 849 848 845 843 842 840 838 836 833 832 829 827 824 822 819 816 814 811 809 807 805 803 801 799 798 796 795 793 792 791 789 788 787 785 784 783 782 781 779 778 777
888 887 886 885 884 883 882 881 880 879 878 877 875 874 873 871 870 868 867 865 863 861 859 858 856 854 853 851 849 847 845 843 841 839 837 835 833 831 829 827 824 822 819 817 814 812 809 807 805 803 802 800 798 797 795 793 792 790 789 788 786 785 784 782 781 780 778 777 776
887 886 885 884 883 883 882 880 879 878 877 876 875 873 872 871 869 868 866 864 862 861 859 857 855 854 852 850 848 847 844 843 841 839 837 835 833 831 829 827 824 822 819 817 814 812 810 808 806 804 802 800 799 797 795 794 792 790 789 788 786 785 783 782 781 779 778 777 775
887 886 885 884 883 882 881 880 879 878 876 875 874 873 871 870 868 867 865 863 862 860 858 856 855 853 851 850 848 846 844 842 840 838 836 834 833 831 829 827 824 822 820 817 815 813 811 808 807 805 803 801 799 798 796 794 793 791 789 788 786 785 783 782 781 779 778 777 775
886 885 884 883 882 881 880 879 878 877 876 874 873 872 870 869 867 866 864 863 861 859 858 856 854 852 851 849 847 845 844 842 840 838 836 834 832 830 828 827 825 823 820 818 815 813 811 809 807 805 803 802 800 798 796 794 793 791 790 788 787 785 784 782 781 779 778 777 775
885 884 883 883 881 880 879 878 877 876 875 873 872 871 869 868 866 865 863 862 860 858 857 855 853 852 850 848 847 845 843 841 839 838 836 834 832 830 828 827 825 823 820 818 816 814 812 809 808 806 804 802 800 798 796 794 793 791 790 788 787 785 784 783 781 780 778 777 775
884 883 883 882 881 879 878 877 876 875 874 873 871 870 868 867 865 864 862 861 859 858 856 854 853 851 849 848 846 844 843 841 839 837 835 833 832 830 828 826 824 823 821 818 816 814 812 810 808 806 804 802 800 798 796 794 793 791 789 788 787 785 784 782 781 779 778 777 775
884 883 882 881 880 879 878 877 875 874 873 872 870 869 868 866 864 863 862 860 858 857 855 853 852 850 849 847 845 844 842 840 839 837 835 833 831 829 828 826 824 822 820 818 817 815 813 810 808 806 804 802 800 798 796 794 793 791 789 788 786 785 783 782 781 779 778 776 775
883 882 881 880 879 878 877 876 874 873 872 871 869 868 867 865 863 862 861 859 858 856 854 853 851 850 848 847 845 843 842 840 838 836 835 833 831 829 827 826 824 822 820 818 817 815 813 811 808 807 804 802 800 798 796 795 793 791 790 788 787 785 783 782 780 779 778 776 774
883 882 881 879 878 877 876 875 874 873 871 870 868 867 866 864 863 861 860 858 857 855 853 852 850 849 847 846 844 843 841 839 838 836 834 832 830 828 827 825 823 822 820 818 816 815 813 811 809 807 805 803 800 798 796 794 793 791 790 788 787 785 784 782 781 779 778 776 774
882 881 880 879 878 877 875 874 873 872 870 869 868 866 865 863 862 860 859 857 856 854 853 851 850 848 846 845 843 842 840 838 837 835 833 832 830 828 826 825 823 821 819 818 816 814 813 811 809 807 805 803 800 798 796 794 793 791 789 788 787 785 783 782 781 779 778 776 774
881 880 879 878 877 876 875 873 872 871 870 868 867 865 864 863 861 859 858 857 855 853 852 850 849 848 846 844 843 841 840 838 836 835 833 831 829 827 826 824 823 821 819 817 815 814 812 811 809 807 805 803 801 798 796 794 792 791 789 788 786 785 783 782 780 779 778 776 774
880 879 878 877 876 875 874 873 872 870 869 868 866 865 863 862 860 859 857 856 854 853 851 849 848 847 845 844 842 841 839 837 836 834 832 830 829 827 825 824 822 820 818 817 815 813 812 810 808 807 805 803 801 798 796 794 792 791 789 787 786 784 783 781 780 779 777 776 774
880 878 878 877 875 874 873 872 871 869 868 867 865 864 862 861 859 858 856 855 853 852 850 849 847 846 844 843 841 840 838 837 835 833 832 830 828 827 825 823 821 820 818 816 815 813 812 810 808 807 805 803 801 798 796 794 792 791 789 787 785 784 783 781 780 778 777 776 774
879 878 877 876 874 873 872 871 870 868 867 866 864 863 861 860 858 857 855 854 853 851 850 848 847 845 843 842 840 839 838 836 834 832 831 829 827 826 824 822 820 819 817 816 814 813 811 809 808 807 805 803 801 799 796 794 793 791 789 787 785 784 782 781 779 778 776 775 773
878 877 876 875 874 873 871 870 869 868 866 865 863 862 860 859 858 856 854 853 852 850 849 847 846 844 843 841 839 838 836 835 833 832 830 828 827 825 823 822 820 818 816 815 813 812 810 809 808 806 805 803 801 798 796 795 793 791 789 787 785 784 782 781 779 778 776 774 773
877 876 875 874 873 872 871 869 868 867 865 864 863 861 859 858 857 855 853 852 851 849 848 846 845 843 842 840 839 837 835 834 832 831 829 828 826 824 823 821 819 817 815 814 812 810 809 808 807 806 804 802 800 798 796 795 793 791 789 787 785 783 782 780 779 777 775 774 772
876 875 874 873 872 871 870 868 867 866 864 863 862 860 858 857 856 854 853 851 850 848 847 846 844 843 841 839 838 836 834 833 831 829 828 827 825 823 822 820 818 816 815 813 811 809 808 807 806 805 803 801 799 798 796 794 792 791 789 787 785 783 781 780 778 777 775 774 772
875 874 873 873 871 870 869 868 866 865 863 862 861 859 858 856 855 853 852 850 849 848 846 845 843 842 840 838 837 835 834 832 830 828 827 825 824 822 820 819 817 816 814 812 810 809 807 805 804 803 802 800 798 797 795 793 792 790 789 787 785 783 781 779 778 776 774 773 771
875 873 873 872 871 869 868 867 866 864 863 861 860 858 857 855 854 852 851 849 848 847 845 844 842 841 839 838 836 835 833 831 829 827 825 824 822 821 819 818 816 815 813 811 809 808 806 804 803 802 801 799 797 795 794 793 791 790 788 787 784 783 781 778 777 775 774 772 770
874 873 872 871 870 869 868 866 865 863 862 861 859 858 856 854 853 851 850 848 847 846 844 843 841 840 838 837 835 834 832 830 829 827 825 823 821 820 818 817 815 813 812 810 809 807 805 803 803 801 800 798 797 795 793 792 791 789 788 786 784 782 780 778 776 774 773 771 769
873 872 871 870 869 868 867 866 864 863 861 860 858 857 855 854 852 851 849 848 846 845 843 842 841 839 838 836 835 833 831 830 828 826 824 823 821 819 818 816 814 813 811 809 808 807 805 803 801 800 799 798 796 794 793 792 790 788 787 785 783 782 780 778 776 774 772 770 768
872 871 870 869 868 867 866 865 863 862 861 859 858 856 855 853 852 850 848 847 846 844 843 841 840 839 837 836 834 832 831 829 827 826 824 822 820 819 817 816 814 812 810 809 808 806 804 802 800 799 798 797 795 794 793 791 789 788 786 785 783 781 779 777 775 773 771 769 768
871 870 869 868 868 866 865 864 863 861 860 858 857 855 854 853 851 849 848 846 845 843 842 841 839 838 837 835 833 832 830 828 827 825 823 821 820 818 816 815 813 811 809 808 806 805 803 801 800 798 797 796 795 793 792 790 789 787 786 784 782 781 779 777 775 773 771 769 767
870 869 869 868 867 866 864 863 862 861 859 858 856 855 853 852 850 849 847 846 844 843 842 840 839 838 836 834 833 831 829 828 826 824 823 821 819 817 815 814 812 810 808 807 805 804 802 801 799 798 796 795 794 793 791 790 788 787 785 783 782 780 778 776 774 772 771 769 767
869 869 868 867 866 865 864 863 861 860 858 857 855 854 853 851 850 848 847 845 844 842 841 840 838 837 835 833 832 830 828 827 825 823 822 820 818 816 814 813 811 809 807 806 804 803 802 800 798 797 795 794 793 792 790 789 787 786 784 783 781 779 778 776 774 772 770 769 767
868 868 867 866 865 864 863 862 860 859 858 856 855 853 852 851 849 848 846 845 843 842 840 839 838 836 834 833 831 829 828 826 824 823 821 819 818 816 813 812 810 808 806 805 803 802 801 799 798 795 794 793 792 791 789 788 786 785 783 782 780 779 777 775 773 772 770 768 767
868 867 866 865 864 863 862 861 859 858 857 855 854 853 852 850 848 847 845 844 843 841 840 838 837 835 834 832 830 828 827 825 823 822 820 818 817 815 813 811 809 807 805 804 803 801 800 798 797 794 793 791 791 789 788 786 785 784 783 781 780 778 776 775 773 771 769 768 767
867 866 865 864 863 862 861 860 858 857 856 855 853 852 851 849 848 846 845 843 842 841 839 838 836 835 833 832 830 828 826 824 823 821 819 818 816 814 812 810 808 806 805 803 802 800 798 797 795 793 792 790 789 788 787 785 784 783 782 781 779 778 776 774 772 770 769 768 766
866 865 864 863 862 861 860 859 858 857 855 854 853 851 850 849 847 846 844 843 841 840 838 837 836 834 833 831 829 828 826 824 822 820 819 817 815 813 811 809 807 805 804 802 801 799 797 796 794 792 791 789 788 787 786 785 784 783 781 780 778 777 775 773 772 770 769 767 766
865 864 863 862 861 860 859 858 857 856 854 853 852 851 849 848 847 845 843 842 841 839 838 836 835 833 832 830 828 827 825 823 822 820 818 816 814 813 810 808 806 804 802 801 799 798 796 794 793 791 789 788 787 786 785 784 783 782 780 779 778 776 774 773 771 770 768 767 766
864 863 862 861 860 859 858 857 856 855 854 853 851 850 848 847 846 844 843 841 840 838 837 836 834 833 831 830 828 826 825 823 821 819 818 816 814 812 810 808 805 803 801 799 798 796 794 793 791 789 788 787 786 785 784 783 783 781 779 778 777 775 774 772 771 769 768 766 765
863 862 861 860 859 858 858 856 855 854 853 852 850 849 848 846 845 843 842 841 839 838 836 835 833 832 831 829 827 825 824 822 821 819 817 815 813 812 810 808 805 803 800 798 797 795 793 792 790 788 787 786 785 784 783 783 781 780 778 777 776 775 773 772 770 769 767 766 765
862 861 860 859 858 858 857 855 854 853 852 851 849 848 847 846 844 843 841 840 838 837 835 834 833 831 830 828 827 825 823 822 820 818 817 815 813 811 809 807 805 802 800 798 796 794 793 791 789 787 786 784 783 783 782 781 780 779 778 777 775 774 773 771 770 768 767 765 764
860 860 859 858 858 857 856 854 853 853 851 850 849 847 846 845 843 842 840 839 838 836 835 833 832 831 829 828 826 824 822 821 819 818 816 814 812 811 809 807 804 802 799 798 796 794 792 790 788 786 784 783 783 782 781 780 779 778 777 776 774 773 772 771 769 768 766 765 764
859 859 858 857 857 856 855 854 853 852 850 849 848 847 845 844 843 841 840 838 837 835 834 833 831 830 828 827 826 823 822 820 818 817 815 813 812 810 808 806 803 801 799 797 795 793 791 790 788 786 784 783 783 782 781 780 778 777 776 775 774 773 772 770 769 767 766 764 763
Wind_Speed
7 8 8 8 8 8 8 9 9 10 10 11 12 12 13 13 14 15 15 16 17 18 19 20 20 21 22 23 24 25 26 27 28 28 27 27 28 28 29 30 31 32 33 34 33 31 29 26 22 18 15 14 13 13 14 14 15 15 16 16 17 17 18 19 19 19 19 19 18
8 8 8 8 8 8 9 9 10 10 11 11 12 12 13 14 14 15 16 16 17 18 19 20 20 21 22 23 24 25 26 26 27 27 27 27 27 28 29 30 31 32 32 33 32 30 28 26 22 18 15 13 12 12 13 13 14 14 15 16 17 17 17 17 17 17 17 17 17
8 8 8 8 8 9 9 10 10 11 11 12 12 12 13 13 14 15 16 17 18 19 19 20 20 21 22 22 23 24 25 26 26 26 26 26 26 27 28 29 31 31 32 32 31 30 28 25 21 17 14 13 13 13 13 13 13 14 14 15 16 15 15 15 16 16 16 16 16
8 8 8 8 9 9 10 10 11 11 12 12 12 12 13 13 14 15 16 17 18 19 19 20 21 21 21 22 23 24 25 25 25 25 25 25 26 27 28 29 30 31 31 31 30 29 28 24 20 16 14 13 13 12 12 13 13 14 14 14 14 15 15 15 15 15 15 15 16
8 8 8 9 9 10 10 10 11 12 12 12 12 13 13 14 15 16 17 17 18 18 19 20 21 20 21 22 23 24 24 24 24 24 24 25 25 26 27 28 29 30 30 29 29 28 26 23 19 16 14 14 13 12 12 13 14 14 14 14 13 14 14 15 15 15 15 15 16
8 9 9 9 10 10 10 11 12 12 12 12 13 13 14 14 15 16 17 18 18 19 20 20 20 20 20 21 22 23 23 23 23 24 24 24 25 25 26 27 28 29 29 29 28 27 25 22 19 16 15 14 13 13 13 13 13 14 14 13 13 14 14 15 15 15 15 15 16
9 9 9 9 10 10 11 11 12 12 13 13 13 14 15 16 17 17 18 18 18 19 19 19 19 20 20 21 22 22 23 23 23 23 23 24 24 25 26 26 27 28 28 28 27 25 23 21 18 17 16 15 13 13 13 14 13 13 13 13 13 14 14 15 15 15 15 16 17
9 9 9 10 10 10 11 12 12 13 13 13 13 14 15 16 17 18 18 18 18 18 19 19 19 20 20 21 21 21 22 22 23 23 23 23 23 24 25 25 26 27 28 27 26 24 22 20 18 17 16 15 14 14 15 15 15 14 14 14 13 13 14 15 15 15 16 16 17
9 9 10 10 10 11 11 12 13 13 13 13 14 15 16 17 17 17 17 17 18 18 19 19 19 20 20 20 20 20 21 21 22 22 23 23 23 24 24 25 25 27 27 27 25 24 22 19 18 18 17 16 15 15 16 16 16 16 15 14 14 14 14 15 15 15 15 16 16
9 10 10 10 10 11 12 12 13 13 13 13 14 15 16 16 17 17 16 17 18 19 19 19 19 19 19 19 19 19 20 21 21 22 22 23 23 23 23 24 25 26 26 26 25 23 21 19 18 18 18 16 16 16 16 17 17 16 15 14 14 15 15 15 15 14 14 15 16
9 10 10 10 11 11 12 13 13 13 13 13 14 15 15 16 16 16 16 17 18 19 19 18 18 18 19 18 19 19 20 20 21 21 22 22 22 23 23 23 24 25 25 25 24 23 20 19 18 18 18 17 15 15 16 16 16 16 16 15 15 15 15 15 15 15 14 15 15
10 10 10 10 11 12 12 12 13 12 13 13 14 15 15 15 16 16 17 17 18 18 18 18 17 17 18 17 18 19 19 20 21 21 21 21 22 22 22 23 23 24 25 24 23 22 20 19 19 18 18 17 15 15 15 15 15 15 15 15 15 15 15 16 16 15 15 15 15
9 10 10 11 11 12 12 12 12 12 13 13 14 14 15 15 16 16 16 17 17 18 18 17 17 17 17 17 18 18 19 20 20 20 20 21 21 22 22 23 24 25 25 23 22 21 20 20 19 18 17 16 15 15 15 15 14 14 14 15 15 15 15 15 16 16 15 15 15
9 10 10 11 11 12 12 12 12 12 13 13 14 15 15 15 16 16 16 16 17 17 17 17 16 16 16 17 18 18 19 19 20 20 20 20 21 21 22 22 24 25 25 23 22 21 20 19 18 17 17 16 16 15 15 14 14 14 14 15 15 15 15 15 16 16 16 16 15
9 10 10 11 11 11 12 12 12 13 13 14 14 15 15 15 15 15 15 16 17 17 17 17 17 16 16 17 17 18 18 19 19 19 20 21 21 22 21 21 23 24 24 23 22 21 20 19 18 17 16 16 15 15 15 15 14 14 15 15 15 15 16 16 16 16 16 16 16
9 10 10 11 11 12 12 12 13 13 13 14 15 15 15 15 15 15 16 16 17 17 17 17 17 17 17 17 17 17 18 18 19 19 20 21 22 22 22 21 22 23 24 23 22 20 19 18 17 16 16 15 15 15 15 16 15 15 15 15 15 16 16 16 16 16 16 16 16
10 10 11 11 12 12 12 13 13 13 14 15 15 15 15 15 15 16 16 17 17 17 18 18 18 17 17 17 17 17 17 18 18 19 20 20 22 22 22 21 21 23 24 23 21 20 19 18 17 16 16 15 15 15 15 16 16 15 15 15 16 16 16 16 16 16 16 16 16
10 10 11 11 12 12 13 13 13 14 15 15 15 15 15 15 16 16 17 17 17 17 18 19 18 17 17 17 17 17 17 18 18 19 20 21 21 22 22 22 22 22 23 23 21 19 18 18 17 16 15 15 14 15 15 16 16 15 15 16 16 17 17 17 16 16 15 16 16
10 10 11 11 12 12 13 13 14 14 15 15 15 15 16 16 16 16 17 17 17 18 18 18 18 18 17 17 17 17 17 17 18 19 20 21 21 21 22 23 22 22 23 23 21 18 17 17 17 16 15 14 14 15 15 15 15 15 15 15 16 17 17 17 17 16 16 16 16
10 10 11 11 12 12 13 13 14 14 15 15 15 16 16 16 16 16 17 18 18 18 18 18 18 18 18 17 17 17 17 17 18 19 20 20 21 21 22 22 23 22 22 23 21 18 15 15 15 15 15 14 14 14 15 14 14 15 15 15 16 16 17 17 17 17 17 17 16
10 10 11 12 12 12 13 13 14 14 15 15 15 16 16 16 16 17 17 18 18 19 19 19 18 18 18 18 18 18 18 18 18 19 20 20 20 20 21 22 22 22 23 23 23 20 15 13 13 14 14 13 14 15 15 14 14 14 14 14 15 16 17 17 17 17 18 18 18
10 10 11 12 12 12 13 14 14 14 15 15 15 16 16 16 16 17 17 18 18 19 19 19 19 19 19 18 18 18 19 19 19 19 19 19 19 20 20 21 21 21 22 24 24 22 18 13 11 12 13 14 14 14 14 14 14 14 14 15 15 16 17 17 17 18 18 18 18
10 11 11 12 12 12 13 14 14 14 15 15 15 15 16 16 16 17 17 17 18 18 19 19 19 19 19 19 18 18 19 20 20 21 20 20 20 21 21 20 20 20 21 23 24 24 21 14 10 9 13 14 14 13 13 14 14 14 14 15 16 16 17 17 18 18 18 19 18
10 11 11 12 12 12 13 13 14 14 14 15 15 15 16 16 16 17 17 17 18 18 19 19 20 20 19 19 18 18 19 20 21 22 22 22 22 22 22 21 19 19 20 23 24 25 24 17 9 7 11 14 14 13 13 14 14 13 13 14 15 16 17 18 18 18 18 19 18
11 11 12 12 12 12 13 13 13 14 14 15 15 16 16 16 16 17 17 17 17 18 19 20 20 20 19 18 18 18 19 19 20 21 22 23 24 24 23 21 20 20 22 24 24 26 26 22 10 6 10 13 13 13 13 13 12 12 13 14 14 15 16 17 18 18 18 18 19
11 11 12 12 12 12 12 13 13 14 14 15 15 16 16 16 16 16 16 17 17 18 19 19 19 18 17 17 18 18 19 19 20 21 22 23 24 25 24 22 21 23 26 27 26 27 28 26 16 9 8 11 12 12 11 11 11 12 12 13 14 15 16 17 18 18 18 18 18
11 11 12 12 12 12 12 12 13 13 14 15 15 16 16 16 16 16 16 16 17 18 18 18 17 16 16 17 17 18 19 19 20 20 21 22 23 24 23 22 23 26 28 27 26 26 28 28 22 13 7 9 10 11 11 11 11 11 11 12 13 14 15 16 17 18 18 18 18
10 11 11 12 12 12 12 12 13 13 14 15 15 16 16 16 16 16 16 16 17 17 16 15 15 15 15 16 17 18 19 20 19 19 20 21 22 23 23 22 23 26 27 26 26 26 27 28 26 17 8 8 9 10 11 11 11 11 11 12 12 14 15 16 16 17 18 18 18
10 11 11 11 11 12 12 12 13 13 14 15 16 16 16 16 16 16 15 16 16 15 15 14 14 15 15 16 17 18 19 19 19 19 19 20 21 22 22 22 23 25 27 27 26 26 27 28 27 20 11 8 9 10 10 11 11 11 11 12 12 14 15 16 16 17 17 18 18
10 10 11 11 11 12 12 12 13 14 14 15 16 16 16 16 16 15 15 15 15 15 14 14 15 16 16 17 18 18 18 19 19 19 19 20 21 22 22 23 23 25 27 26 26 26 27 27 28 23 14 8 9 11 11 11 11 11 11 12 13 14 15 16 17 17 17 18 18
10 10 11 11 11 12 12 12 13 14 15 15 16 16 16 16 16 16 15 15 15 15 15 15 16 16 17 18 18 18 19 19 19 19 19 20 21 22 22 23 24 25 26 25 25 26 27 27 29 26 18 9 9 11 12 11 11 11 11 12 13 14 15 16 17 17 18 18 18
10 10 11 11 11 12 12 13 14 14 15 15 16 16 16 16 16 16 16 15 15 15 15 15 16 17 17 18 18 19 19 19 19 19 19 20 21 22 22 23 23 24 24 25 25 26 26 27 29 27 21 10 9 10 12 11 11 11 11 12 13 14 15 17 17 17 18 18 17
10 10 10 11 11 12 13 13 14 15 15 15 15 15 15 16 16 16 16 15 15 15 15 15 16 17 17 18 18 19 19 19 19 19 20 20 21 21 22 22 22 22 23 24 25 26 26 26 28 27 21 11 9 10 12 11 10 11 12 13 14 15 15 16 17 18 18 18 17
9 10 10 11 11 12 13 13 14 15 15 15 15 15 16 16 16 16 16 15 15 15 15 15 16 16 17 17 18 18 19 19 19 19 20 20 20 21 21 21 21 22 23 24 25 26 26 26 27 26 20 11 9 10 11 11 10 11 13 14 15 15 16 17 18 18 17 17 17
9 10 10 11 11 12 13 13 14 14 15 15 15 16 16 16 16 16 16 16 15 15 15 15 15 16 16 16 17 18 19 19 19 20 20 20 20 21 22 22 22 23 24 24 25 25 25 26 27 25 19 11 9 10 10 9 10 12 14 15 16 16 17 17 17 17 16 16 16
9 10 11 11 12 12 13 13 14 14 14 15 15 16 16 16 16 16 16 16 15 15 15 16 16 16 16 16 17 18 18 19 19 20 20 20 20 21 22 22 23 24 24 25 25 25 25 26 27 25 18 9 8 8 8 8 10 13 16 16 17 17 17 17 16 16 16 16 16
9 10 11 12 12 12 13 13 14 14 14 15 15 16 16 17 17 16 16 15 15 15 16 16 16 16 16 17 17 18 19 19 19 19 20 20 20 20 21 22 23 24 25 25 25 25 26 27 28 25 18 8 6 6 6 8 11 14 16 17 17 16 16 16 16 16 16 16 16
9 10 11 12 12 13 13 13 13 13 14 15 15 16 17 17 16 16 15 15 15 15 16 16 16 16 16 17 18 19 19 19 19 19 19 20 20 20 21 22 23 24 24 25 25 26 26 27 28 25 17 7 5 5 6 8 12 14 16 17 16 16 16 16 16 15 15 16 16
10 10 11 12 13 13 13 13 13 13 14 15 16 17 17 17 16 16 16 16 16 16 16 16 16 16 17 18 18 19 19 19 19 18 19 19 19 20 20 21 22 23 23 23 24 24 25 26 27 24 17 6 5 5 7 9 12 14 16 16 16 16 16 15 15 15 15 16 17
10 11 11 12 12 13 13 13 13 14 14 15 16 17 17 17 17 17 17 17 17 16 16 15 16 16 17 18 18 18 19 19 19 18 18 19 19 19 19 19 20 21 22 22 22 23 23 24 25 23 17 8 6 6 8 9 12 14 15 15 15 15 15 15 15 15 16 17 17
10 11 11 12 12 13 13 13 13 14 15 15 16 16 16 17 17 18 18 18 17 16 16 15 16 16 17 18 17 18 18 19 19 19 19 19 19 19 19 18 19 19 20 21 21 22 22 22 23 22 18 12 9 9 9 10 11 13 13 14 15 15 15 15 15 16 16 17 17
Wind_Direction
326 324 321 318 318 317 316 313 312 312 312 312 312 313 313 313 314 315 316 317 318 318 319 319 319 319 320 322 323 324 325 326 327 327 328 328 328 329 330 330 330 331 331 330 331 334 339 341 338 330 318 308 300 296 294 294 294 293 292 292 293 292 292 292 291 291 292 291 290
324 321 318 316 317 317 316 313 312 311 312 313 311 311 312 313 313 314 316 317 317 317 317 317 318 319 320 322 323 325 326 326 327 327 328 329 330 331 332 332 333 333 333 334 335 339 343 345 343 336 327 317 308 302 299 298 296 294 293 293 292 292 291 291 290 290 291 291 289
321 320 318 316 317 317 316 314 313 312 312 312 311 310 311 312 313 314 314 314 315 316 317 317 318 319 320 321 323 325 325 326 327 328 329 331 332 333 334 335 335 336 337 337 338 341 344 345 344 340 333 324 318 312 307 304 301 297 295 294 294 293 291 291 292 292 291 290 289
319 318 317 316 316 316 315 313 312 312 313 312 311 311 312 312 312 312 313 313 315 316 317 317 318 319 320 321 323 324 325 326 328 329 330 331 333 335 336 337 336 337 338 340 340 342 344 346 345 343 338 331 323 315 311 310 308 303 299 296 295 295 294 293 294 294 293 290 290
316 316 315 314 315 315 314 312 312 312 312 312 310 310 312 313 313 314 315 315 315 315 316 316 318 319 320 321 322 323 325 326 329 330 331 332 334 336 337 338 337 337 339 340 341 342 344 347 348 346 342 336 330 325 320 316 312 308 304 301 298 296 296 295 295 295 293 292 292
313 313 313 312 313 314 314 312 312 312 311 310 309 310 311 313 314 315 315 315 315 316 316 317 318 319 321 321 322 324 326 327 329 330 331 333 334 336 338 338 338 339 340 342 342 343 345 347 349 349 347 343 338 333 328 325 318 313 309 306 303 301 300 299 298 297 296 296 295
311 311 311 311 312 313 313 312 312 311 310 309 309 310 311 312 313 315 315 315 316 317 319 319 320 321 322 322 323 325 326 328 329 330 331 332 334 336 338 339 340 341 341 343 343 343 345 347 349 351 351 350 347 343 339 334 327 320 316 311 310 308 306 305 305 303 302 302 301
309 309 309 309 311 312 313 313 312 311 310 309 309 310 312 313 314 315 316 317 317 318 319 320 320 321 322 322 323 324 326 327 329 330 331 331 332 334 337 339 340 341 343 343 343 342 343 346 348 350 351 351 349 346 343 340 335 329 324 319 318 318 316 316 315 313 310 309 308
308 308 308 309 310 311 312 312 312 311 309 308 309 311 313 315 315 316 317 318 319 319 319 320 320 321 322 322 322 324 326 328 328 329 330 332 333 335 337 340 341 343 344 343 342 342 342 343 345 347 349 350 349 348 346 345 343 339 334 330 328 327 326 326 324 322 320 318 317
309 309 310 310 311 312 313 312 311 310 309 308 310 312 314 315 315 315 316 317 318 319 320 320 321 322 323 323 323 324 327 328 328 329 330 331 332 334 337 339 341 342 343 343 342 342 341 340 341 343 346 347 346 347 349 350 349 348 346 343 341 339 338 338 337 335 332 329 327
309 310 310 310 311 312 313 313 312 311 310 310 312 314 315 315 315 315 316 317 318 319 320 321 322 323 323 322 324 326 326 327 327 328 329 329 331 334 336 338 339 341 342 343 342 341 340 338 337 338 340 343 344 346 349 352 352 352 352 351 350 349 349 350 349 348 344 341 337
310 310 311 311 312 313 313 313 313 311 311 311 313 315 316 315 315 316 317 318 319 320 321 322 322 323 323 322 324 325 326 327 328 328 329 330 332 334 336 338 339 341 342 343 342 341 340 337 336 335 336 339 341 343 346 349 351 351 351 352 352 352 352 352 352 351 349 346 343
309 311 311 312 313 314 314 314 313 311 311 312 314 316 316 315 316 316 317 318 319 320 321 322 322 322 322 323 324 324 325 326 328 329 330 331 332 335 337 339 340 342 342 342 341 339 338 337 336 336 336 337 340 341 342 345 347 347 347 347 348 348 348 348 349 349 348 347 344
309 311 313 313 314 315 315 315 314 312 312 314 315 316 317 316 316 317 317 318 320 320 321 321 322 322 321 321 323 324 325 326 328 329 330 331 333 336 338 339 341 343 342 341 339 337 336 335 335 336 337 338 341 344 345 346 346 346 345 345 345 344 344 344 344 345 345 343 342
309 312 314 315 315 316 316 316 314 314 314 314 316 317 317 317 316 316 317 318 320 321 321 322 322 321 320 321 323 324 325 327 329 330 331 332 334 337 338 339 341 343 343 340 337 335 333 333 333 333 335 339 344 350 354 355 353 351 349 348 346 344 343 343 342 342 341 340 339
310 313 315 317 317 317 317 317 316 315 315 315 316 317 317 316 316 316 317 319 320 321 322 322 322 321 320 321 323 325 326 328 330 331 332 333 334 336 337 337 339 341 343 340 336 333 331 330 330 330 333 338 346 355 1 2 360 357 355 352 349 347 346 344 343 341 338 337 335
310 313 316 317 317 317 317 317 316 315 315 315 315 316 316 316 316 317 318 319 320 321 322 323 322 321 320 322 324 326 327 328 329 330 331 332 333 334 335 335 336 340 342 341 336 331 328 327 327 328 329 334 343 352 360 3 2 360 358 355 353 351 349 347 344 342 338 335 333
309 312 315 317 317 317 317 317 316 316 316 315 315 315 315 316 316 317 318 319 320 321 321 322 322 321 321 321 323 325 326 327 328 329 330 331 332 333 333 334 335 339 341 342 338 331 325 324 324 324 326 330 338 348 355 358 357 356 354 353 352 351 350 347 345 342 339 336 333
309 313 315 317 318 317 317 317 317 317 316 316 315 315 315 316 317 317 318 320 321 321 321 321 322 321 320 320 321 323 324 325 326 327 328 330 331 331 332 334 335 338 340 343 340 333 324 322 322 323 325 329 338 347 353 354 353 351 351 350 350 349 348 346 343 341 338 336 333
309 313 316 317 317 317 318 318 318 318 317 317 316 315 315 317 318 318 318 319 320 321 321 321 321 320 320 320 320 322 323 324 325 326 327 328 329 330 331 333 335 336 338 341 342 337 325 319 320 323 327 332 342 352 357 354 352 351 352 351 350 349 347 344 342 339 337 335 334
309 313 316 317 318 318 318 319 319 319 319 318 317 316 317 317 319 319 319 320 321 321 322 322 321 320 320 320 320 321 322 323 324 325 326 326 326 327 328 330 333 334 335 338 342 339 327 315 315 324 332 339 351 359 360 354 352 352 353 352 351 350 348 346 342 339 336 334 332
310 314 317 319 318 318 319 320 320 320 320 319 318 318 318 318 319 320 321 321 321 321 321 321 321 321 321 320 319 320 321 322 324 325 326 325 325 325 327 328 330 331 333 335 339 336 326 309 309 325 340 349 357 360 357 353 353 352 351 351 351 351 350 348 344 341 337 333 330
311 316 319 320 319 319 319 320 321 322 322 321 320 319 319 319 320 321 322 321 321 320 320 320 321 321 321 320 319 318 320 322 324 326 327 326 326 327 328 328 328 328 329 333 336 333 325 309 303 327 347 354 357 354 351 353 353 350 348 349 350 350 350 348 345 342 338 334 330
312 318 321 321 320 320 320 321 322 323 323 322 322 321 320 320 321 322 322 321 321 321 320 321 322 322 321 320 318 318 319 321 324 326 327 328 329 329 330 329 327 326 327 331 333 332 329 325 311 330 351 356 354 350 349 351 349 346 344 346 346 347 347 346 345 342 338 334 330
314 319 321 321 321 320 320 321 321 322 323 324 324 323 322 322 322 322 322 321 321 321 321 322 322 322 320 319 318 318 319 321 323 325 327 328 330 331 331 330 328 326 328 331 331 331 332 337 329 334 351 355 352 349 346 344 341 340 340 342 343 343 343 343 342 340 337 333 330
316 320 322 322 322 320 320 320 321 323 325 326 326 325 324 324 324 323 321 320 320 321 322 322 322 320 318 317 317 318 320 321 322 323 325 326 328 329 330 329 327 327 330 332 330 331 334 337 334 333 344 351 347 342 337 332 331 332 335 338 340 341 341 340 339 338 335 332 328
316 319 322 323 322 320 319 320 322 324 326 327 327 326 327 327 326 324 321 320 320 322 322 321 319 317 317 317 317 318 319 319 320 321 322 323 325 326 326 326 325 327 329 330 329 329 331 334 336 336 338 347 344 340 334 328 326 327 329 333 336 338 339 338 337 336 334 331 328
314 318 321 323 321 319 319 321 323 325 326 327 328 328 329 329 327 324 321 320 320 320 319 317 316 316 316 317 316 316 317 317 318 318 318 319 321 322 322 322 323 324 326 326 327 327 329 332 336 337 340 349 347 342 334 326 324 325 328 330 334 337 339 340 339 337 334 331 329
312 317 320 321 320 319 320 321 323 326 327 329 329 330 330 329 327 324 322 320 320 318 316 315 316 316 316 315 315 315 315 315 315 315 315 316 317 318 319 319 319 321 323 324 325 326 327 329 334 334 335 349 351 345 337 330 325 325 328 330 332 336 339 340 341 339 337 333 330
311 315 318 319 319 319 320 322 323 326 328 329 330 330 329 328 327 325 324 322 320 317 315 315 315 314 314 313 314 314 314 314 314 314 314 314 315 316 316 316 317 318 320 321 322 324 325 328 331 331 330 339 352 351 343 330 324 324 326 328 330 334 337 340 342 341 339 336 332
309 313 316 318 318 318 319 321 323 325 327 329 330 329 328 327 327 326 325 323 320 318 316 315 314 313 313 313 314 314 314 313 313 313 313 314 314 314 314 314 315 316 317 318 320 322 324 326 329 329 327 328 346 351 345 333 321 320 323 325 328 332 336 340 342 342 341 338 335
306 312 315 316 316 317 319 322 323 325 327 328 328 327 327 326 326 326 326 324 321 319 318 317 316 315 314 314 315 315 314 313 313 313 313 314 314 314 314 314 314 314 315 316 318 320 323 325 327 329 328 323 339 348 345 334 320 316 320 325 328 332 336 340 341 342 341 340 337
304 310 313 313 314 316 319 321 324 325 326 327 326 326 325 325 326 326 326 325 323 321 320 319 318 317 316 316 315 315 315 315 314 314 314 314 314 315 315 314 314 314 315 316 318 319 321 324 326 328 327 324 340 348 344 334 320 316 321 327 331 334 337 339 339 339 340 339 338
302 308 311 311 313 315 318 321 323 324 324 324 324 325 325 325 325 325 326 325 324 322 321 320 318 317 316 315 315 316 316 316 316 316 316 316 316 316 316 316 315 315 316 317 318 319 321 323 325 326 326 324 343 350 344 332 318 320 328 330 333 336 337 338 337 336 337 338 339
301 306 308 309 311 314 316 319 321 322 322 322 323 323 324 324 324 324 324 325 323 321 320 320 319 317 316 315 316 316 317 317 317 317 317 318 318 319 319 318 317 317 318 319 320 321 322 324 326 327 327 328 346 350 342 327 323 330 335 335 336 337 338 337 335 334 335 336 340
299 304 305 308 310 312 315 318 320 320 320 321 322 323 323 324 324 324 324 323 322 321 320 320 320 319 318 318 318 318 318 317 317 317 318 318 319 320 321 320 320 320 321 322 323 324 324 325 327 329 332 338 350 347 336 324 331 336 338 338 337 338 338 336 335 334 334 337 340
296 301 304 307 310 311 314 316 318 318 319 320 321 322 323 324 324 323 323 322 321 320 321 322 321 321 320 320 319 319 318 317 316 316 317 319 320 321 321 322 321 322 324 327 327 326 326 327 329 332 336 346 353 342 327 326 334 337 338 339 337 337 337 336 336 335 336 338 341
293 297 302 307 309 311 313 315 315 316 317 319 321 323 324 324 323 322 322 321 320 319 319 320 320 320 320 320 319 318 319 319 317 317 317 318 320 320 321 321 321 323 326 330 330 329 327 328 329 333 338 349 0 341 324 329 336 338 339 339 337 336 336 336 337 337 338 339 341
289 294 300 305 308 310 311 312 313 314 316 318 321 323 324 324 322 322 322 322 320 319 318 318 318 319 320 320 319 319 320 321 319 318 318 319 319 320 320 320 320 323 327 330 331 329 327 327 328 331 335 340 358 345 329 329 335 339 340 339 338 336 336 337 337 338 339 340 341
286 292 297 302 306 308 308 310 311 314 316 319 321 322 322 323 322 323 323 323 322 320 318 316 316 318 320 321 320 319 320 322 322 321 320 320 320 320 320 319 319 321 325 328 329 327 325 325 325 329 332 330 340 335 327 329 335 339 340 340 340 338 337 337 338 339 340 340 341
284 289 294 298 302 304 306 308 310 313 316 319 320 320 321 322 322 324 325 324 323 321 319 316 317 319 321 323 322 320 320 322 324 324 323 322 322 322 321 319 318 318 320 323 324 323 321 321 322 325 330 333 332 327 325 329 335 338 340 341 341 340 338 338 338 339 340 341 341